TimeEDT,TemperatureF,Dew PointF,Humidity,Sea Level PressureIn,VisibilityMPH,Wind Direction,Wind SpeedMPH,Gust SpeedMPH,PrecipitationIn,Events,Conditions,WindDirDegrees,DateUTC
12:45 AM,48.2,46.4,93,30.25,10.0,Calm,Calm,-,N/A,,Overcast,0,2012-10-09 04:45:00
2:45 AM,46.4,44.6,93,30.24,10.0,ENE,5.8,-,N/A,,Mostly Cloudy,70,2012-10-09 06:45:00
3:45 AM,46.4,44.6,93,30.24,10.0,NNE,5.8,-,N/A,,Mostly Cloudy,30,2012-10-09 07:45:00
4:45 AM,48.2,44.6,87,30.25,10.0,NE,5.8,-,N/A,,Overcast,40,2012-10-09 08:45:00
6:45 AM,48.2,44.6,87,30.24,15.0,ENE,9.2,-,N/A,Rain,Light Rain,70,2012-10-09 10:45:00
7:45 AM,48.2,44.6,87,30.25,20.0,ENE,5.8,-,N/A,,Mostly Cloudy,60,2012-10-09 11:45:00
8:45 AM,50.0,46.4,87,30.24,20.0,Variable,3.5,-,N/A,,Mostly Cloudy,0,2012-10-09 12:45:00
9:45 AM,51.8,46.4,82,30.24,20.0,ENE,6.9,-,N/A,,Mostly Cloudy,70,2012-10-09 13:45:00
10:55 AM,53.6,48.2,82,30.24,20.0,ENE,8.1,13.8,N/A,,Mostly Cloudy,70,2012-10-09 14:55:00
11:45 AM,55.4,48.2,77,30.22,20.0,ENE,9.2,-,N/A,,Overcast,70,2012-10-09 15:45:00
12:45 PM,57.2,50.0,77,30.20,20.0,ENE,9.2,-,N/A,,Overcast,60,2012-10-09 16:45:00
1:45 PM,59.0,50.0,72,30.17,20.0,ENE,13.8,-,N/A,,Overcast,70,2012-10-09 17:45:00
2:45 PM,59.0,50.0,72,30.16,20.0,ENE,13.8,-,N/A,,Overcast,70,2012-10-09 18:45:00
3:50 PM,57.2,50.0,77,30.15,20.0,East,6.9,-,N/A,,Overcast,100,2012-10-09 19:50:00
4:45 PM,57.2,50.0,77,30.15,20.0,East,11.5,-,N/A,,Overcast,90,2012-10-09 20:45:00
5:45 PM,55.4,50.0,82,30.15,20.0,ESE,11.5,-,N/A,,Overcast,120,2012-10-09 21:45:00
6:45 PM,55.4,50.0,82,30.14,10.0,East,9.2,-,N/A,,Overcast,90,2012-10-09 22:45:00
7:45 PM,55.4,50.0,82,30.14,10.0,East,8.1,-,N/A,,Overcast,100,2012-10-09 23:45:00
8:45 PM,55.4,50.0,82,30.14,10.0,East,11.5,-,N/A,,Overcast,90,2012-10-10 00:45:00
9:45 PM,53.6,50.0,88,30.13,10.0,East,8.1,-,N/A,,Overcast,80,2012-10-10 01:45:00
10:55 PM,53.6,50.0,88,30.12,15.0,East,5.8,-,N/A,,Overcast,80,2012-10-10 02:55:00
11:45 PM,53.6,50.0,88,30.10,10.0,ESE,9.2,-,N/A,,Overcast,110,2012-10-10 03:45:00